Gage, OK

3:41 PM CST on January 19, 2017 (GMT -0600)
Gage

Weather History for KGAG - November, 2012

Change the Weather History Date:

Monday, November 5, 2012

  Actual Average Record
Temperature  
Mean Temperature 52 °F -  
Max Temperature 66 °F 63 °F 84 °F (1950)
Min Temperature 37 °F 35 °F 13 °F (1951)
Degree Days  
Heating Degree Days 12    
Growing Degree Days 2 (Base 50)    
Moisture  
Dew Point 32 °F    
Average Humidity 47    
Maximum Humidity 68    
Minimum Humidity 28    
Precipitation  
Precipitation 0.00 in - - ()
Sea Level Pressure  
Sea Level Pressure 30.13 in    
Wind  
Wind Speed 9 mph (NNW)    
Max Wind Speed 23 mph    
Max Gust Speed 29 mph    
Visibility 10 miles    
Events      
Averages and records for this station are not official NWS values.
T = Trace of Precipitation, MM = Missing Value Source: NWS Daily Summary

Daily Weather History Graph

Daily Weather History Graph

Search for Another Location

Airport or City:

Trip Planner

Search our weather history database for the weather conditions in past years. The results will help you decide how hot, cold, wet, or windy it might be!

Date:

Astronomy

Nov. 05, 2012 Rise Set
Actual Time 7:06 AM CST 5:38 PM CST
Civil Twilight 6:39 AM CST 6:05 PM CST
Nautical Twilight 6:09 AM CST 6:35 PM CST
Astronomical Twilight 5:38 AM CST 7:05 PM CST
Moon 11:17 PM CST (11/5) 12:26 PM CST (11/5)
Length of Visible Light 11h 25m
Length of Day
10h 31m
Waning Gibbous, 62% of the Moon is Illuminated
Nov 5
Waning Gibbous
Nov 6
Last Quarter
Nov 13
New
Nov 20
First Quarter
Nov 28
Full

Hourly Weather History & Observations

Time (CST) Temp. Windchill Dew Point Humidity Pressure Visibility Wind Dir Wind Speed Gust Speed Precip Events Conditions
12:53 AM 44.1 °F 38.6 °F 34.0 °F 68% 30.10 in 10.0 mi West 10.4 mph - N/A   Clear
1:53 AM 50.0 °F - 35.1 °F 57% 30.11 in 10.0 mi NW 4.6 mph - N/A   Clear
2:53 AM 52.0 °F - 34.0 °F 50% 30.12 in 10.0 mi North 3.5 mph - N/A   Clear
3:53 AM 52.0 °F - 32.0 °F 47% 30.11 in 10.0 mi NNW 8.1 mph - N/A   Partly Cloudy
4:53 AM 50.0 °F - 32.0 °F 50% 30.13 in 10.0 mi NNW 6.9 mph - N/A   Mostly Cloudy
5:53 AM 48.0 °F - 30.9 °F 52% 30.15 in 10.0 mi NW 9.2 mph - N/A   Clear
6:53 AM 46.9 °F - 32.0 °F 56% 30.16 in 10.0 mi NNW 9.2 mph - N/A   Partly Cloudy
7:53 AM 50.0 °F - 35.1 °F 57% 30.18 in 10.0 mi NNW 11.5 mph - N/A   Overcast
8:53 AM 54.0 °F - 36.0 °F 51% 30.20 in 10.0 mi North 16.1 mph 21.9 mph N/A   Overcast
9:53 AM 59.0 °F - 34.0 °F 39% 30.19 in 10.0 mi North 17.3 mph 23.0 mph N/A   Partly Cloudy
10:53 AM 60.1 °F - 32.0 °F 35% 30.19 in 10.0 mi NNW 23.0 mph 28.8 mph N/A   Clear
11:53 AM 62.1 °F - 30.9 °F 31% 30.17 in 10.0 mi NNW 18.4 mph 28.8 mph N/A   Clear
12:53 PM 64.0 °F - 32.0 °F 30% 30.15 in 10.0 mi North 15.0 mph 28.8 mph N/A   Clear
1:53 PM 64.0 °F - 32.0 °F 30% 30.12 in 10.0 mi NNW 17.3 mph 27.6 mph N/A   Clear
2:53 PM 66.0 °F - 32.0 °F 28% 30.10 in 10.0 mi NNW 16.1 mph 28.8 mph N/A   Clear
3:53 PM 64.0 °F - 33.1 °F 31% 30.09 in 10.0 mi North 11.5 mph 24.2 mph N/A   Clear
4:53 PM 62.1 °F - 32.0 °F 32% 30.08 in 10.0 mi North 10.4 mph - N/A   Clear
5:53 PM 55.0 °F - 30.9 °F 40% 30.11 in 10.0 mi NNE 5.8 mph - N/A   Clear
6:53 PM 52.0 °F - 30.9 °F 45% 30.12 in 10.0 mi East 3.5 mph - N/A   Clear
7:53 PM 48.0 °F - 30.0 °F 50% 30.12 in 10.0 mi Calm Calm - N/A   Clear
8:53 PM 46.0 °F 44.8 °F 28.9 °F 51% 30.12 in 10.0 mi SE 3.5 mph - N/A   Clear
9:53 PM 39.9 °F 35.8 °F 28.0 °F 63% 30.12 in 10.0 mi South 5.8 mph - N/A   Clear
10:53 PM 39.0 °F - 27.0 °F 62% 30.11 in 10.0 mi Calm Calm - N/A   Clear
11:53 PM 37.9 °F - 28.0 °F 68% 30.12 in 10.0 mi Calm Calm - N/A   Clear